Time,TemperatureF,DewpointF,PressureIn,WindDirection,WindDirectionDegrees,WindSpeedMPH,WindSpeedGustMPH,Humidity,HourlyPrecipIn,Conditions,Clouds,dailyrainin,SoftwareType,DateUTC
2013-03-17 00:02:00,32.7,27.3,30.10,NNE,30,7.0,8.0,80,0.00,,,0.00,meteohub,2013-03-17 05:02:00,
2013-03-17 00:07:00,32.7,27.5,30.10,NNE,18,1.0,8.0,81,0.00,,,0.00,meteohub,2013-03-17 05:07:00,
2013-03-17 00:12:00,32.5,27.3,30.09,NNE,32,4.0,8.0,81,0.00,,,0.00,meteohub,2013-03-17 05:12:00,
2013-03-17 00:17:00,32.7,27.5,30.09,NE,45,6.0,9.0,81,0.00,,,0.00,meteohub,2013-03-17 05:17:00,
2013-03-17 00:23:00,32.7,27.3,30.09,NNE,19,5.0,9.0,80,0.00,,,0.00,meteohub,2013-03-17 05:23:00,
2013-03-17 00:28:00,32.7,27.5,30.09,NNE,26,9.0,9.0,81,0.00,,,0.00,meteohub,2013-03-17 05:28:00,
2013-03-17 00:33:00,32.7,27.5,30.09,NE,40,6.0,9.0,81,0.00,,,0.00,meteohub,2013-03-17 05:33:00,
2013-03-17 00:38:00,32.5,27.3,30.09,North,5,9.0,11.0,81,0.00,,,0.00,meteohub,2013-03-17 05:38:00,
2013-03-17 00:43:00,32.5,27.1,30.09,NNE,26,3.0,11.0,80,0.00,,,0.00,meteohub,2013-03-17 05:43:00,
2013-03-17 00:48:00,32.5,27.3,30.09,NNE,16,6.0,12.0,81,0.00,,,0.00,meteohub,2013-03-17 05:48:00,
2013-03-17 00:53:00,32.5,27.1,30.09,NNE,20,8.0,12.0,80,0.00,,,0.00,meteohub,2013-03-17 05:53:00,
2013-03-17 00:59:00,32.5,27.1,30.09,NE,41,8.0,13.0,80,0.00,,,0.00,meteohub,2013-03-17 05:59:00,
2013-03-17 01:04:00,32.5,27.1,30.09,North,355,8.0,13.0,80,0.00,,,0.00,meteohub,2013-03-17 06:04:00,
2013-03-17 01:09:00,32.4,27.0,30.08,NNE,21,9.0,13.0,80,0.00,,,0.00,meteohub,2013-03-17 06:09:00,
2013-03-17 01:15:00,32.4,27.0,30.08,NNE,20,12.0,15.0,80,0.00,,,0.00,meteohub,2013-03-17 06:15:00,
2013-03-17 01:20:00,32.4,27.0,30.08,NE,51,5.0,15.0,80,0.00,,,0.00,meteohub,2013-03-17 06:20:00,
2013-03-17 01:25:00,32.2,26.8,30.08,NNE,28,9.0,15.0,80,0.00,,,0.00,meteohub,2013-03-17 06:25:00,
2013-03-17 01:30:00,32.2,27.0,30.08,North,5,8.0,15.0,81,0.00,,,0.00,meteohub,2013-03-17 06:30:00,
2013-03-17 01:35:00,32.2,27.0,30.08,NE,55,8.0,14.0,81,0.00,,,0.00,meteohub,2013-03-17 06:35:00,
2013-03-17 01:41:00,32.2,27.0,30.09,NE,36,10.0,13.0,81,0.00,,,0.00,meteohub,2013-03-17 06:41:00,
2013-03-17 01:46:00,32.2,26.8,30.09,NNE,22,7.0,12.0,80,0.00,,,0.00,meteohub,2013-03-17 06:46:00,
2013-03-17 01:51:00,32.2,26.8,30.09,NNE,31,7.0,12.0,80,0.00,,,0.00,meteohub,2013-03-17 06:51:00,
2013-03-17 01:56:00,32.2,26.8,30.09,NE,47,7.0,12.0,80,0.00,,,0.00,meteohub,2013-03-17 06:56:00,
2013-03-17 02:02:00,32.0,26.8,30.09,NE,55,4.0,12.0,81,0.00,,,0.00,meteohub,2013-03-17 07:02:00,
2013-03-17 02:07:00,31.8,26.6,30.09,NE,38,3.0,12.0,81,0.00,,,0.00,meteohub,2013-03-17 07:07:00,
2013-03-17 02:12:00,31.8,26.6,30.09,NE,42,13.0,13.0,81,0.00,,,0.00,meteohub,2013-03-17 07:12:00,
2013-03-17 02:17:00,31.8,26.6,30.09,NNE,28,10.0,13.0,81,0.00,,,0.00,meteohub,2013-03-17 07:17:00,
2013-03-17 02:22:00,31.8,26.6,30.09,NE,49,7.0,13.0,81,0.00,,,0.00,meteohub,2013-03-17 07:22:00,
2013-03-17 02:27:00,31.8,26.6,30.09,North,11,4.0,13.0,81,0.00,,,0.00,meteohub,2013-03-17 07:27:00,
2013-03-17 02:33:00,31.8,26.6,30.09,NNE,27,4.0,12.0,81,0.00,,,0.00,meteohub,2013-03-17 07:33:00,
2013-03-17 02:38:00,31.8,26.6,30.09,North,11,11.0,13.0,81,0.00,,,0.00,meteohub,2013-03-17 07:38:00,
2013-03-17 02:43:00,31.8,26.6,30.09,North,5,10.0,13.0,81,0.00,,,0.00,meteohub,2013-03-17 07:43:00,
2013-03-17 02:48:00,31.8,26.6,30.09,NNE,18,5.0,13.0,81,0.00,,,0.00,meteohub,2013-03-17 07:48:00,
2013-03-17 02:54:00,31.8,26.4,30.09,North,355,5.0,13.0,80,0.00,,,0.00,meteohub,2013-03-17 07:54:00,
2013-03-17 02:59:00,31.8,26.6,30.09,NE,42,10.0,14.0,81,0.00,,,0.00,meteohub,2013-03-17 07:59:00,
2013-03-17 03:05:00,31.8,26.4,30.08,NE,48,7.0,14.0,80,0.00,,,0.00,meteohub,2013-03-17 08:05:00,
2013-03-17 03:10:00,31.6,26.2,30.09,NNE,28,9.0,14.0,80,0.00,,,0.00,meteohub,2013-03-17 08:10:00,
2013-03-17 03:15:00,31.6,26.2,30.09,NNE,26,10.0,13.0,80,0.00,,,0.00,meteohub,2013-03-17 08:15:00,
2013-03-17 03:20:00,31.8,26.6,30.10,NE,42,3.0,11.0,81,0.00,,,0.00,meteohub,2013-03-17 08:20:00,
2013-03-17 03:25:00,31.6,26.4,30.10,NE,46,1.0,11.0,81,0.00,,,0.00,meteohub,2013-03-17 08:25:00,
2013-03-17 03:31:00,31.6,26.4,30.10,NE,42,10.0,11.0,81,0.00,,,0.00,meteohub,2013-03-17 08:31:00,
2013-03-17 03:36:00,31.6,26.4,30.10,NNE,16,4.0,11.0,81,0.00,,,0.00,meteohub,2013-03-17 08:36:00,
2013-03-17 03:41:00,31.6,26.4,30.10,ENE,69,5.0,11.0,81,0.00,,,0.00,meteohub,2013-03-17 08:41:00,
2013-03-17 03:46:00,31.6,26.4,30.09,NNE,29,5.0,10.0,81,0.00,,,0.00,meteohub,2013-03-17 08:46:00,
2013-03-17 03:52:00,31.6,26.2,30.09,NE,52,8.0,10.0,80,0.00,,,0.00,meteohub,2013-03-17 08:52:00,
2013-03-17 03:57:00,31.6,26.2,30.09,NNE,24,4.0,10.0,80,0.00,,,0.00,meteohub,2013-03-17 08:57:00,
2013-03-17 04:02:00,31.6,25.9,30.10,ENE,71,8.0,11.0,79,0.00,,,0.00,meteohub,2013-03-17 09:02:00,
2013-03-17 04:07:00,31.8,25.7,30.10,NE,48,6.0,11.0,78,0.00,,,0.00,meteohub,2013-03-17 09:07:00,
2013-03-17 04:12:00,31.8,25.7,30.10,NE,37,3.0,12.0,78,0.00,,,0.00,meteohub,2013-03-17 09:12:00,
2013-03-17 04:17:00,31.8,26.1,30.10,NE,51,2.0,12.0,79,0.00,,,0.00,meteohub,2013-03-17 09:17:00,
2013-03-17 04:22:00,31.8,26.1,30.11,NE,52,6.0,10.0,79,0.00,,,0.00,meteohub,2013-03-17 09:22:00,
2013-03-17 04:27:00,31.8,26.1,30.11,NNE,21,5.0,9.0,79,0.00,,,0.00,meteohub,2013-03-17 09:27:00,
2013-03-17 04:33:00,31.8,25.7,30.11,NNE,29,5.0,8.0,78,0.00,,,0.00,meteohub,2013-03-17 09:33:00,
2013-03-17 04:38:00,31.8,25.7,30.10,NNE,27,3.0,8.0,78,0.00,,,0.00,meteohub,2013-03-17 09:38:00,
2013-03-17 04:43:00,31.8,25.7,30.10,East,82,5.0,9.0,78,0.00,,,0.00,meteohub,2013-03-17 09:43:00,
2013-03-17 04:48:00,31.8,25.7,30.10,NE,45,6.0,9.0,78,0.00,,,0.00,meteohub,2013-03-17 09:48:00,
2013-03-17 04:54:00,31.8,25.7,30.11,NNE,28,2.0,9.0,78,0.00,,,0.00,meteohub,2013-03-17 09:54:00,
2013-03-17 04:59:00,31.8,25.7,30.11,North,10,9.0,9.0,78,0.00,,,0.00,meteohub,2013-03-17 09:59:00,
2013-03-17 05:04:00,31.8,25.7,30.12,NE,54,0.0,11.0,78,0.00,,,0.00,meteohub,2013-03-17 10:04:00,
2013-03-17 05:09:00,31.8,25.7,30.12,NE,36,2.0,11.0,78,0.00,,,0.00,meteohub,2013-03-17 10:09:00,
2013-03-17 05:14:00,31.8,25.7,30.12,NE,51,5.0,11.0,78,0.00,,,0.00,meteohub,2013-03-17 10:14:00,
2013-03-17 05:19:00,31.6,25.5,30.13,East,80,4.0,9.0,78,0.00,,,0.00,meteohub,2013-03-17 10:19:00,
2013-03-17 05:24:00,31.6,25.5,30.13,NE,52,7.0,9.0,78,0.00,,,0.00,meteohub,2013-03-17 10:24:00,
2013-03-17 05:29:00,31.6,25.5,30.13,NE,49,6.0,9.0,78,0.00,,,0.00,meteohub,2013-03-17 10:29:00,
2013-03-17 05:35:00,31.6,25.5,30.13,East,82,5.0,9.0,78,0.00,,,0.00,meteohub,2013-03-17 10:35:00,
2013-03-17 05:40:00,31.6,25.5,30.14,NNE,25,5.0,9.0,78,0.00,,,0.00,meteohub,2013-03-17 10:40:00,
2013-03-17 05:45:00,31.6,25.5,30.14,ENE,70,0.0,10.0,78,0.00,,,0.00,meteohub,2013-03-17 10:45:00,
2013-03-17 05:51:00,31.6,25.5,30.15,NE,56,3.0,10.0,78,0.00,,,0.00,meteohub,2013-03-17 10:51:00,
2013-03-17 05:56:00,31.6,25.5,30.15,NE,48,8.0,9.0,78,0.00,,,0.00,meteohub,2013-03-17 10:56:00,
2013-03-17 06:01:00,31.6,25.5,30.15,NNE,30,2.0,9.0,78,0.00,,,0.00,meteohub,2013-03-17 11:01:00,
2013-03-17 06:06:00,31.6,25.5,30.16,NNE,32,4.0,9.0,78,0.00,,,0.00,meteohub,2013-03-17 11:06:00,
2013-03-17 06:11:00,31.6,25.5,30.16,ENE,61,3.0,9.0,78,0.00,,,0.00,meteohub,2013-03-17 11:11:00,
2013-03-17 06:17:00,31.6,25.5,30.17,NE,48,4.0,9.0,78,0.00,,,0.00,meteohub,2013-03-17 11:17:00,
2013-03-17 06:22:00,31.6,25.5,30.16,NE,56,4.0,9.0,78,0.00,,,0.00,meteohub,2013-03-17 11:22:00,
2013-03-17 06:27:00,31.6,25.5,30.15,ENE,59,2.0,8.0,78,0.00,,,0.00,meteohub,2013-03-17 11:27:00,
2013-03-17 06:32:00,31.6,25.5,30.16,ENE,72,2.0,10.0,78,0.00,,,0.00,meteohub,2013-03-17 11:32:00,
2013-03-17 06:37:00,31.6,25.5,30.16,ENE,78,6.0,10.0,78,0.00,,,0.00,meteohub,2013-03-17 11:37:00,
2013-03-17 06:42:00,31.6,25.5,30.16,ENE,57,2.0,8.0,78,0.00,,,0.00,meteohub,2013-03-17 11:42:00,
2013-03-17 06:47:00,31.6,25.5,30.16,ESE,117,4.0,9.0,78,0.00,,,0.00,meteohub,2013-03-17 11:47:00,
2013-03-17 06:53:00,31.6,25.9,30.16,East,96,6.0,9.0,79,0.00,,,0.00,meteohub,2013-03-17 11:53:00,
2013-03-17 06:58:00,31.5,25.3,30.16,NE,37,2.0,7.0,78,0.00,,,0.00,meteohub,2013-03-17 11:58:00,
2013-03-17 07:03:00,31.5,25.3,30.16,ENE,67,5.0,10.0,78,0.00,,,0.00,meteohub,2013-03-17 12:03:00,
2013-03-17 07:08:00,31.5,25.3,30.16,NE,51,3.0,10.0,78,0.00,,,0.00,meteohub,2013-03-17 12:08:00,
2013-03-17 07:13:00,31.5,25.3,30.16,ESE,115,2.0,10.0,78,0.00,,,0.00,meteohub,2013-03-17 12:13:00,
2013-03-17 07:18:00,31.5,25.3,30.15,East,84,7.0,8.0,78,0.00,,,0.00,meteohub,2013-03-17 12:18:00,
2013-03-17 07:24:00,31.5,25.3,30.16,NNE,26,5.0,8.0,78,0.00,,,0.00,meteohub,2013-03-17 12:24:00,
2013-03-17 07:29:00,31.5,25.3,30.15,East,85,8.0,10.0,78,0.00,,,0.00,meteohub,2013-03-17 12:29:00,
2013-03-17 07:34:00,31.5,25.3,30.15,ENE,61,8.0,12.0,78,0.00,,,0.00,meteohub,2013-03-17 12:34:00,
2013-03-17 07:39:00,31.5,25.2,30.15,ENE,61,8.0,12.0,77,0.00,,,0.00,meteohub,2013-03-17 12:39:00,
2013-03-17 07:44:00,31.5,25.2,30.16,ENE,74,5.0,12.0,77,0.00,,,0.00,meteohub,2013-03-17 12:44:00,
2013-03-17 07:50:00,31.6,25.0,30.16,ENE,58,5.0,12.0,76,0.00,,,0.00,meteohub,2013-03-17 12:50:00,
2013-03-17 07:55:00,31.6,25.0,30.16,ENE,73,7.0,12.0,76,0.00,,,0.00,meteohub,2013-03-17 12:55:00,
2013-03-17 08:00:00,31.6,25.3,30.16,East,90,1.0,11.0,77,0.00,,,0.00,meteohub,2013-03-17 13:00:00,
2013-03-17 08:05:00,31.6,25.0,30.16,East,80,7.0,11.0,76,0.00,,,0.00,meteohub,2013-03-17 13:05:00,
2013-03-17 08:10:00,31.6,25.0,30.17,ENE,71,6.0,11.0,76,0.00,,,0.00,meteohub,2013-03-17 13:10:00,
2013-03-17 08:15:00,31.8,25.2,30.16,ENE,78,8.0,11.0,76,0.00,,,0.00,meteohub,2013-03-17 13:15:00,
2013-03-17 08:21:00,31.8,25.2,30.16,East,86,6.0,10.0,76,0.00,,,0.00,meteohub,2013-03-17 13:21:00,
2013-03-17 08:26:00,31.8,25.2,30.16,NE,48,5.0,10.0,76,0.00,,,0.00,meteohub,2013-03-17 13:26:00,
2013-03-17 08:32:00,32.0,25.3,30.16,ENE,69,6.0,10.0,76,0.00,,,0.00,meteohub,2013-03-17 13:32:00,
2013-03-17 08:37:00,32.2,25.5,30.16,East,100,6.0,10.0,76,0.00,,,0.00,meteohub,2013-03-17 13:37:00,
2013-03-17 08:42:00,32.2,25.5,30.16,ENE,64,9.0,12.0,76,0.00,,,0.00,meteohub,2013-03-17 13:42:00,
2013-03-17 08:47:00,32.4,25.3,30.17,East,87,2.0,12.0,75,0.00,,,0.00,meteohub,2013-03-17 13:47:00,
2013-03-17 08:52:00,32.4,25.7,30.17,ENE,72,5.0,10.0,76,0.00,,,0.00,meteohub,2013-03-17 13:52:00,
2013-03-17 08:57:00,32.4,25.7,30.17,ENE,70,8.0,10.0,76,0.00,,,0.00,meteohub,2013-03-17 13:57:00,
2013-03-17 09:03:00,32.4,25.3,30.17,ENE,69,5.0,11.0,75,0.00,,,0.00,meteohub,2013-03-17 14:03:00,
2013-03-17 09:08:00,32.4,25.3,30.17,ENE,65,9.0,12.0,75,0.00,,,0.00,meteohub,2013-03-17 14:08:00,
2013-03-17 09:13:00,32.4,25.3,30.17,East,98,6.0,12.0,75,0.00,,,0.00,meteohub,2013-03-17 14:13:00,
2013-03-17 09:19:00,32.5,25.5,30.17,ENE,61,9.0,11.0,75,0.00,,,0.00,meteohub,2013-03-17 14:19:00,
2013-03-17 09:24:00,32.5,25.2,30.17,ENE,57,9.0,11.0,74,0.00,,,0.00,meteohub,2013-03-17 14:24:00,
2013-03-17 09:29:00,32.5,25.5,30.17,NE,54,8.0,12.0,75,0.00,,,0.00,meteohub,2013-03-17 14:29:00,
2013-03-17 09:35:00,32.5,25.2,30.16,ENE,61,10.0,12.0,74,0.00,,,0.00,meteohub,2013-03-17 14:35:00,
2013-03-17 09:40:00,32.5,25.2,30.16,ENE,62,5.0,13.0,74,0.00,,,0.00,meteohub,2013-03-17 14:40:00,
2013-03-17 09:45:00,32.5,25.5,30.16,East,84,8.0,13.0,75,0.00,,,0.00,meteohub,2013-03-17 14:45:00,
2013-03-17 09:50:00,32.7,25.3,30.17,ESE,117,6.0,12.0,74,0.00,,,0.00,meteohub,2013-03-17 14:50:00,
2013-03-17 09:55:00,32.7,25.3,30.17,NE,35,2.0,13.0,74,0.00,,,0.00,meteohub,2013-03-17 14:55:00,
2013-03-17 10:00:00,32.7,25.7,30.17,ENE,70,6.0,13.0,75,0.00,,,0.00,meteohub,2013-03-17 15:00:00,
2013-03-17 10:05:00,32.7,25.3,30.17,ENE,73,6.0,13.0,74,0.00,,,0.00,meteohub,2013-03-17 15:05:00,
2013-03-17 10:10:00,33.1,26.1,30.17,ESE,109,5.0,13.0,75,0.00,,,0.00,meteohub,2013-03-17 15:10:00,
2013-03-17 10:16:00,33.1,25.7,30.16,East,86,10.0,14.0,74,0.00,,,0.00,meteohub,2013-03-17 15:16:00,
2013-03-17 10:21:00,33.1,25.7,30.17,ENE,69,6.0,15.0,74,0.00,,,0.00,meteohub,2013-03-17 15:21:00,
2013-03-17 10:26:00,33.3,26.2,30.17,SSE,148,5.0,15.0,75,0.00,,,0.00,meteohub,2013-03-17 15:26:00,
2013-03-17 10:31:00,33.4,26.1,30.17,SSE,168,4.0,13.0,74,0.00,,,0.00,meteohub,2013-03-17 15:31:00,
2013-03-17 10:36:00,33.4,26.1,30.17,ENE,76,8.0,12.0,74,0.00,,,0.00,meteohub,2013-03-17 15:36:00,
2013-03-17 10:41:00,33.4,26.1,30.16,East,80,10.0,12.0,74,0.00,,,0.00,meteohub,2013-03-17 15:41:00,
2013-03-17 10:47:00,33.6,26.2,30.16,ENE,62,8.0,13.0,74,0.00,,,0.00,meteohub,2013-03-17 15:47:00,
2013-03-17 10:52:00,33.6,25.9,30.16,East,86,9.0,13.0,73,0.00,,,0.00,meteohub,2013-03-17 15:52:00,
2013-03-17 10:57:00,34.0,26.6,30.16,East,90,8.0,13.0,74,0.00,,,0.00,meteohub,2013-03-17 15:57:00,
2013-03-17 11:02:00,34.0,25.9,30.15,ENE,66,11.0,13.0,72,0.00,,,0.00,meteohub,2013-03-17 16:02:00,
2013-03-17 11:07:00,34.2,26.1,30.16,ENE,59,8.0,16.0,72,0.00,,,0.00,meteohub,2013-03-17 16:07:00,
2013-03-17 11:13:00,34.2,26.1,30.16,ESE,103,4.0,16.0,72,0.00,,,0.00,meteohub,2013-03-17 16:13:00,
2013-03-17 11:18:00,34.2,26.1,30.16,ENE,60,12.0,19.0,72,0.00,,,0.00,meteohub,2013-03-17 16:18:00,
2013-03-17 11:23:00,34.3,25.9,30.16,ENE,59,4.0,19.0,71,0.00,,,0.00,meteohub,2013-03-17 16:23:00,
2013-03-17 11:28:00,34.5,26.1,30.16,East,98,5.0,15.0,71,0.00,,,0.00,meteohub,2013-03-17 16:28:00,
2013-03-17 11:34:00,34.7,26.2,30.16,East,97,10.0,15.0,71,0.00,,,0.00,meteohub,2013-03-17 16:34:00,
2013-03-17 11:39:00,34.9,26.4,30.16,East,101,5.0,13.0,71,0.00,,,0.00,meteohub,2013-03-17 16:39:00,
2013-03-17 11:44:00,35.2,26.1,30.16,SE,133,8.0,14.0,69,0.00,,,0.00,meteohub,2013-03-17 16:44:00,
2013-03-17 11:49:00,35.2,25.7,30.15,East,81,7.0,14.0,68,0.00,,,0.00,meteohub,2013-03-17 16:49:00,
2013-03-17 11:54:00,35.1,25.9,30.15,ENE,69,14.0,14.0,69,0.00,,,0.00,meteohub,2013-03-17 16:54:00,
2013-03-17 12:00:00,35.1,26.2,30.15,NE,40,4.0,16.0,70,0.00,,,0.00,meteohub,2013-03-17 17:00:00,
2013-03-17 12:05:00,35.2,26.1,30.15,North,9,8.0,18.0,69,0.00,,,0.00,meteohub,2013-03-17 17:05:00,
2013-03-17 12:10:00,35.4,26.2,30.15,ENE,65,6.0,19.0,69,0.00,,,0.00,meteohub,2013-03-17 17:10:00,
2013-03-17 12:15:00,35.8,26.6,30.16,ENE,76,7.0,19.0,69,0.00,,,0.00,meteohub,2013-03-17 17:15:00,
2013-03-17 12:20:00,36.0,26.4,30.15,ESE,107,4.0,14.0,68,0.00,,,0.00,meteohub,2013-03-17 17:20:00,
2013-03-17 12:25:00,36.0,26.1,30.16,SE,132,11.0,14.0,67,0.00,,,0.00,meteohub,2013-03-17 17:25:00,
2013-03-17 12:31:00,36.0,26.4,30.15,SSW,194,2.0,16.0,68,0.00,,,0.00,meteohub,2013-03-17 17:31:00,
2013-03-17 12:37:00,36.0,26.4,30.15,ENE,59,7.0,16.0,68,0.00,,,0.00,meteohub,2013-03-17 17:37:00,
2013-03-17 12:42:00,36.0,26.1,30.15,East,93,9.0,16.0,67,0.00,,,0.00,meteohub,2013-03-17 17:42:00,
2013-03-17 12:47:00,36.3,26.8,30.15,SE,140,5.0,16.0,68,0.00,,,0.00,meteohub,2013-03-17 17:47:00,
2013-03-17 12:52:00,36.3,26.4,30.15,East,92,11.0,16.0,67,0.00,,,0.00,meteohub,2013-03-17 17:52:00,
2013-03-17 12:57:00,36.7,26.4,30.14,NE,55,10.0,15.0,66,0.00,,,0.00,meteohub,2013-03-17 17:57:00,
2013-03-17 13:02:00,36.7,26.8,30.14,NE,40,4.0,18.0,67,0.00,,,0.00,meteohub,2013-03-17 18:02:00,
2013-03-17 13:07:00,37.2,27.0,30.14,East,92,2.0,18.0,66,0.00,,,0.00,meteohub,2013-03-17 18:07:00,
2013-03-17 13:12:00,37.0,26.8,30.14,ENE,65,10.0,15.0,66,0.00,,,0.00,meteohub,2013-03-17 18:12:00,
2013-03-17 13:17:00,37.2,27.0,30.13,East,81,8.0,16.0,66,0.00,,,0.00,meteohub,2013-03-17 18:17:00,
2013-03-17 13:22:00,37.6,27.0,30.13,SE,126,6.0,16.0,65,0.00,,,0.00,meteohub,2013-03-17 18:22:00,
2013-03-17 13:27:00,37.9,27.1,30.13,NW,312,5.0,19.0,65,0.00,,,0.00,meteohub,2013-03-17 18:27:00,
2013-03-17 13:33:00,37.9,26.8,30.12,East,101,7.0,19.0,64,0.00,,,0.00,meteohub,2013-03-17 18:33:00,
2013-03-17 13:38:00,38.7,27.9,30.12,East,80,10.0,18.0,65,0.00,,,0.00,meteohub,2013-03-17 18:38:00,
2013-03-17 13:43:00,38.5,27.0,30.12,East,86,12.0,18.0,63,0.00,,,0.00,meteohub,2013-03-17 18:43:00,
2013-03-17 13:48:00,38.5,27.0,30.12,ENE,71,8.0,19.0,63,0.00,,,0.00,meteohub,2013-03-17 18:48:00,
2013-03-17 13:53:00,37.9,26.4,30.12,East,81,10.0,19.0,63,0.00,,,0.00,meteohub,2013-03-17 18:53:00,
2013-03-17 13:58:00,37.9,27.7,30.11,SSE,157,6.0,20.0,66,0.00,,,0.00,meteohub,2013-03-17 18:58:00,
2013-03-17 14:04:00,38.1,27.9,30.11,East,91,5.0,20.0,66,0.00,,,0.00,meteohub,2013-03-17 19:04:00,
2013-03-17 14:09:00,38.1,27.3,30.10,ESE,108,4.0,20.0,65,0.00,,,0.00,meteohub,2013-03-17 19:09:00,
2013-03-17 14:14:00,38.5,27.7,30.10,NE,38,13.0,15.0,65,0.00,,,0.00,meteohub,2013-03-17 19:14:00,
2013-03-17 14:19:00,38.5,27.7,30.09,East,81,8.0,15.0,65,0.00,,,0.00,meteohub,2013-03-17 19:19:00,
2013-03-17 14:24:00,38.8,27.3,30.09,NE,53,7.0,20.0,63,0.00,,,0.00,meteohub,2013-03-17 19:24:00,
2013-03-17 14:29:00,39.2,28.0,30.09,East,98,4.0,20.0,64,0.00,,,0.00,meteohub,2013-03-17 19:29:00,
2013-03-17 14:34:00,39.2,27.3,30.09,East,88,7.0,20.0,62,0.00,,,0.00,meteohub,2013-03-17 19:34:00,
2013-03-17 14:40:00,39.4,27.9,30.08,East,100,8.0,16.0,63,0.00,,,0.00,meteohub,2013-03-17 19:40:00,
2013-03-17 14:45:00,39.6,28.0,30.08,East,85,2.0,16.0,63,0.00,,,0.00,meteohub,2013-03-17 19:45:00,
2013-03-17 14:50:00,39.4,27.9,30.07,ENE,70,4.0,20.0,63,0.00,,,0.00,meteohub,2013-03-17 19:50:00,
2013-03-17 14:55:00,39.0,27.5,30.07,East,87,9.0,20.0,63,0.00,,,0.00,meteohub,2013-03-17 19:55:00,
2013-03-17 15:01:00,38.8,27.7,30.07,ENE,59,15.0,20.0,64,0.00,,,0.00,meteohub,2013-03-17 20:01:00,
2013-03-17 15:06:00,38.8,27.7,30.07,ESE,103,13.0,19.0,64,0.00,,,0.00,meteohub,2013-03-17 20:06:00,
2013-03-17 15:11:00,38.8,28.0,30.06,ENE,72,8.0,19.0,65,0.00,,,0.00,meteohub,2013-03-17 20:11:00,
2013-03-17 15:16:00,39.0,27.9,30.06,ESE,119,5.0,19.0,64,0.00,,,0.00,meteohub,2013-03-17 20:16:00,
2013-03-17 15:22:00,39.7,28.6,30.06,East,86,4.0,19.0,64,0.00,,,0.00,meteohub,2013-03-17 20:22:00,
2013-03-17 15:27:00,39.7,27.9,30.06,SSW,206,6.0,19.0,62,0.00,,,0.00,meteohub,2013-03-17 20:27:00,
2013-03-17 15:32:00,39.7,28.2,30.05,ENE,59,4.0,16.0,63,0.00,,,0.00,meteohub,2013-03-17 20:32:00,
2013-03-17 15:37:00,40.1,28.9,30.05,ESE,103,7.0,15.0,64,0.00,,,0.00,meteohub,2013-03-17 20:37:00,
2013-03-17 15:42:00,39.9,28.4,30.04,East,86,13.0,15.0,63,0.00,,,0.00,meteohub,2013-03-17 20:42:00,
2013-03-17 15:48:00,39.9,28.4,30.04,East,92,6.0,20.0,63,0.00,,,0.00,meteohub,2013-03-17 20:48:00,
2013-03-17 15:53:00,40.3,28.8,30.04,ESE,123,6.0,20.0,63,0.00,,,0.00,meteohub,2013-03-17 20:53:00,
2013-03-17 15:58:00,41.2,29.1,30.04,ESE,112,7.0,20.0,62,0.00,,,0.00,meteohub,2013-03-17 20:58:00,
2013-03-17 16:03:00,41.2,28.8,30.04,NE,53,10.0,15.0,61,0.00,,,0.00,meteohub,2013-03-17 21:03:00,
2013-03-17 16:08:00,40.5,28.9,30.04,ESE,103,5.0,15.0,63,0.00,,,0.00,meteohub,2013-03-17 21:08:00,
2013-03-17 16:13:00,40.8,28.4,30.04,SE,136,6.0,15.0,61,0.00,,,0.00,meteohub,2013-03-17 21:13:00,
2013-03-17 16:19:00,41.2,28.4,30.04,East,87,7.0,16.0,60,0.00,,,0.00,meteohub,2013-03-17 21:19:00,
2013-03-17 16:24:00,40.6,28.2,30.04,East,81,8.0,16.0,61,0.00,,,0.00,meteohub,2013-03-17 21:24:00,
2013-03-17 16:29:00,40.3,28.2,30.04,ESE,119,9.0,16.0,62,0.00,,,0.00,meteohub,2013-03-17 21:29:00,
2013-03-17 16:34:00,40.5,28.4,30.04,East,83,8.0,18.0,62,0.00,,,0.00,meteohub,2013-03-17 21:34:00,
2013-03-17 16:40:00,40.5,28.4,30.04,SE,135,7.0,18.0,62,0.00,,,0.00,meteohub,2013-03-17 21:40:00,
2013-03-17 16:45:00,40.5,28.4,30.04,SE,130,5.0,14.0,62,0.00,,,0.00,meteohub,2013-03-17 21:45:00,
2013-03-17 16:50:00,40.3,28.2,30.04,SW,217,5.0,15.0,62,0.00,,,0.00,meteohub,2013-03-17 21:50:00,
2013-03-17 16:56:00,40.1,28.6,30.04,ENE,70,8.0,19.0,63,0.00,,,0.00,meteohub,2013-03-17 21:56:00,
2013-03-17 17:01:00,39.9,28.8,30.04,SE,132,4.0,19.0,64,0.00,,,0.00,meteohub,2013-03-17 22:01:00,
2013-03-17 17:06:00,39.9,28.8,30.05,ENE,78,4.0,15.0,64,0.00,,,0.00,meteohub,2013-03-17 22:06:00,
2013-03-17 17:12:00,39.7,28.6,30.04,NE,55,3.0,15.0,64,0.00,,,0.00,meteohub,2013-03-17 22:12:00,
2013-03-17 17:17:00,39.6,28.8,30.04,East,90,3.0,12.0,65,0.00,,,0.00,meteohub,2013-03-17 22:17:00,
2013-03-17 17:22:00,39.6,28.8,30.04,SE,128,6.0,12.0,65,0.00,,,0.00,meteohub,2013-03-17 22:22:00,
2013-03-17 17:28:00,39.6,28.8,30.04,SE,142,4.0,11.0,65,0.00,,,0.00,meteohub,2013-03-17 22:28:00,
2013-03-17 17:33:00,39.4,28.9,30.04,ESE,120,1.0,11.0,66,0.00,,,0.00,meteohub,2013-03-17 22:33:00,
2013-03-17 17:38:00,39.4,28.9,30.04,SE,144,6.0,11.0,66,0.00,,,0.00,meteohub,2013-03-17 22:38:00,
2013-03-17 17:43:00,39.2,28.8,30.04,East,80,7.0,11.0,66,0.00,,,0.00,meteohub,2013-03-17 22:43:00,
2013-03-17 17:48:00,39.0,28.9,30.04,East,91,4.0,13.0,67,0.00,,,0.00,meteohub,2013-03-17 22:48:00,
2013-03-17 17:53:00,38.8,28.8,30.03,SE,128,5.0,13.0,67,0.00,,,0.00,meteohub,2013-03-17 22:53:00,
2013-03-17 17:59:00,38.8,29.1,30.04,ENE,74,8.0,13.0,68,0.00,,,0.00,meteohub,2013-03-17 22:59:00,
2013-03-17 18:04:00,38.7,28.9,30.04,NE,46,10.0,13.0,68,0.00,,,0.00,meteohub,2013-03-17 23:04:00,
2013-03-17 18:09:00,38.5,29.1,30.03,ENE,71,5.0,13.0,69,0.00,,,0.00,meteohub,2013-03-17 23:09:00,
2013-03-17 18:14:00,38.5,28.8,30.04,ESE,107,6.0,13.0,68,0.00,,,0.00,meteohub,2013-03-17 23:14:00,
2013-03-17 18:19:00,38.3,28.8,30.03,SSE,162,4.0,13.0,68,0.00,,,0.00,meteohub,2013-03-17 23:19:00,
2013-03-17 18:25:00,38.1,28.9,30.03,ENE,71,9.0,18.0,69,0.00,,,0.00,meteohub,2013-03-17 23:25:00,
2013-03-17 18:30:00,37.9,28.8,30.03,ESE,107,9.0,18.0,69,0.00,,,0.00,meteohub,2013-03-17 23:30:00,
2013-03-17 18:35:00,37.9,29.1,30.03,East,99,7.0,13.0,70,0.00,,,0.00,meteohub,2013-03-17 23:35:00,
2013-03-17 18:40:00,37.9,28.8,30.04,NE,43,6.0,12.0,69,0.00,,,0.00,meteohub,2013-03-17 23:40:00,
2013-03-17 18:45:00,37.8,28.6,30.03,NE,39,7.0,13.0,69,0.00,,,0.00,meteohub,2013-03-17 23:45:00,
2013-03-17 18:50:00,37.8,28.6,30.03,East,101,4.0,14.0,69,0.00,,,0.00,meteohub,2013-03-17 23:50:00,
2013-03-17 18:56:00,37.8,28.6,30.03,East,92,7.0,14.0,69,0.00,,,0.00,meteohub,2013-03-17 23:56:00,
2013-03-17 19:01:00,37.8,28.6,30.02,East,84,8.0,12.0,69,0.00,,,0.00,meteohub,2013-03-18 00:01:00,
2013-03-17 19:07:00,37.8,28.6,30.03,NE,49,6.0,13.0,69,0.00,,,0.00,meteohub,2013-03-18 00:07:00,
2013-03-17 19:12:00,37.6,29.1,30.03,East,80,5.0,13.0,71,0.00,,,0.00,meteohub,2013-03-18 00:12:00,
2013-03-17 19:17:00,37.6,29.1,30.03,ESE,112,4.0,13.0,71,0.00,,,0.00,meteohub,2013-03-18 00:17:00,
2013-03-17 19:22:00,37.4,29.1,30.03,ENE,59,7.0,16.0,72,0.00,,,0.00,meteohub,2013-03-18 00:22:00,
2013-03-17 19:27:00,37.2,29.1,30.02,ENE,74,4.0,16.0,72,0.00,,,0.00,meteohub,2013-03-18 00:27:00,
2013-03-17 19:33:00,37.0,29.1,30.02,East,94,11.0,11.0,73,0.00,,,0.00,meteohub,2013-03-18 00:33:00,
2013-03-17 19:38:00,37.0,28.9,30.01,East,82,9.0,13.0,72,0.00,,,0.00,meteohub,2013-03-18 00:38:00,
2013-03-17 19:43:00,37.0,28.9,30.01,ENE,74,7.0,13.0,72,0.00,,,0.00,meteohub,2013-03-18 00:43:00,
2013-03-17 19:48:00,36.9,28.8,30.01,East,84,8.0,14.0,72,0.00,,,0.00,meteohub,2013-03-18 00:48:00,
2013-03-17 19:54:00,36.9,28.9,30.01,ENE,63,7.0,15.0,73,0.00,,,0.00,meteohub,2013-03-18 00:54:00,
2013-03-17 19:59:00,36.9,28.9,30.01,NE,51,9.0,15.0,73,0.00,,,0.00,meteohub,2013-03-18 00:59:00,
2013-03-17 20:04:00,36.9,28.9,30.01,ESE,109,11.0,15.0,73,0.00,,,0.00,meteohub,2013-03-18 01:04:00,
2013-03-17 20:09:00,36.7,28.8,30.01,NE,53,10.0,15.0,73,0.00,,,0.00,meteohub,2013-03-18 01:09:00,
2013-03-17 20:15:00,36.7,28.8,30.01,NE,35,8.0,15.0,73,0.00,,,0.00,meteohub,2013-03-18 01:15:00,
2013-03-17 20:20:00,36.7,28.8,30.01,East,79,7.0,13.0,73,0.00,,,0.00,meteohub,2013-03-18 01:20:00,
2013-03-17 20:25:00,36.7,29.1,30.01,ENE,67,7.0,12.0,74,0.00,,,0.00,meteohub,2013-03-18 01:25:00,
2013-03-17 20:30:00,36.7,29.1,30.01,ENE,57,4.0,12.0,74,0.00,,,0.00,meteohub,2013-03-18 01:30:00,
2013-03-17 20:35:00,36.7,29.1,30.01,ENE,76,7.0,12.0,74,0.00,,,0.00,meteohub,2013-03-18 01:35:00,
2013-03-17 20:41:00,36.7,29.5,30.01,ENE,78,2.0,16.0,75,0.00,,,0.00,meteohub,2013-03-18 01:41:00,
2013-03-17 20:47:00,36.5,29.3,30.00,East,94,1.0,16.0,75,0.00,,,0.00,meteohub,2013-03-18 01:47:00,
2013-03-17 20:52:00,36.5,29.3,30.01,NNE,31,9.0,12.0,75,0.00,,,0.00,meteohub,2013-03-18 01:52:00,
2013-03-17 20:57:00,36.5,29.3,30.00,ENE,75,4.0,12.0,75,0.00,,,0.00,meteohub,2013-03-18 01:57:00,
2013-03-17 21:02:00,36.3,29.1,30.00,East,92,9.0,13.0,75,0.00,,,0.00,meteohub,2013-03-18 02:02:00,
2013-03-17 21:07:00,36.3,29.1,30.00,East,86,6.0,13.0,75,0.00,,,0.00,meteohub,2013-03-18 02:07:00,
2013-03-17 21:12:00,36.3,29.5,30.00,ESE,117,1.0,15.0,76,0.00,,,0.00,meteohub,2013-03-18 02:12:00,
2013-03-17 21:18:00,36.5,29.7,30.00,East,84,4.0,15.0,76,0.00,,,0.00,meteohub,2013-03-18 02:18:00,
2013-03-17 21:23:00,36.3,29.5,29.99,ENE,57,7.0,15.0,76,0.00,,,0.00,meteohub,2013-03-18 02:23:00,
2013-03-17 21:28:00,36.3,29.8,29.99,East,86,2.0,12.0,77,0.00,,,0.00,meteohub,2013-03-18 02:28:00,
2013-03-17 21:33:00,36.3,29.8,29.98,East,84,2.0,12.0,77,0.00,,,0.00,meteohub,2013-03-18 02:33:00,
2013-03-17 21:38:00,36.3,29.8,29.98,ESE,117,2.0,12.0,77,0.00,,,0.00,meteohub,2013-03-18 02:38:00,
2013-03-17 21:43:00,36.1,29.7,29.98,NE,50,1.0,11.0,77,0.00,,,0.00,meteohub,2013-03-18 02:43:00,
2013-03-17 21:48:00,36.1,29.7,29.97,NE,42,6.0,12.0,77,0.00,,,0.00,meteohub,2013-03-18 02:48:00,
2013-03-17 21:53:00,36.1,30.0,29.96,ESE,108,5.0,13.0,78,0.00,,,0.00,meteohub,2013-03-18 02:53:00,
2013-03-17 21:59:00,36.1,30.0,29.96,ENE,67,12.0,13.0,78,0.00,,,0.00,meteohub,2013-03-18 02:59:00,
2013-03-17 22:04:00,36.1,30.0,29.96,ENE,77,5.0,13.0,78,0.00,,,0.00,meteohub,2013-03-18 03:04:00,
2013-03-17 22:09:00,36.1,30.0,29.96,ESE,117,6.0,12.0,78,0.00,,,0.00,meteohub,2013-03-18 03:09:00,
2013-03-17 22:14:00,36.1,29.7,29.96,ESE,107,7.0,12.0,77,0.00,,,0.00,meteohub,2013-03-18 03:14:00,
2013-03-17 22:19:00,36.1,29.7,29.96,SE,146,5.0,13.0,77,0.00,,,0.00,meteohub,2013-03-18 03:19:00,
2013-03-17 22:24:00,36.1,29.7,29.96,ESE,103,7.0,19.0,77,0.00,,,0.00,meteohub,2013-03-18 03:24:00,
2013-03-17 22:29:00,36.3,29.5,29.96,East,101,6.0,19.0,76,0.00,,,0.00,meteohub,2013-03-18 03:29:00,
2013-03-17 22:35:00,36.3,29.5,29.96,East,80,5.0,19.0,76,0.00,,,0.00,meteohub,2013-03-18 03:35:00,
2013-03-17 22:40:00,36.3,29.5,29.95,ENE,78,13.0,14.0,76,0.00,,,0.00,meteohub,2013-03-18 03:40:00,
2013-03-17 22:45:00,36.1,29.3,29.94,ENE,78,13.0,20.0,76,0.00,,,0.00,meteohub,2013-03-18 03:45:00,
2013-03-17 22:50:00,36.1,29.7,29.93,North,-999,-999.0,20.0,77,0.00,,,0.00,meteohub,2013-03-18 03:50:00,
2013-03-17 22:55:00,36.0,29.8,29.92,East,79,11.0,13.0,78,0.00,,,0.00,meteohub,2013-03-18 03:55:00,
2013-03-17 23:00:00,35.8,29.7,29.93,ESE,109,6.0,13.0,78,0.00,,,0.00,meteohub,2013-03-18 04:00:00,
2013-03-17 23:02:00,35.8,29.8,29.93,SE,140,6.0,14.0,79,0.00,,,0.00,meteohub,2013-03-18 04:02:00,
2013-03-17 23:08:00,35.8,30.2,29.94,East,80,10.0,16.0,80,0.00,,,0.00,meteohub,2013-03-18 04:08:00,
2013-03-17 23:13:00,35.4,29.8,29.94,East,83,6.0,16.0,80,0.00,,,0.00,meteohub,2013-03-18 04:13:00,
2013-03-17 23:18:00,35.2,30.0,29.94,ESE,107,5.0,16.0,81,0.00,,,0.00,meteohub,2013-03-18 04:18:00,
2013-03-17 23:23:00,35.2,30.4,29.93,ENE,74,6.0,15.0,82,0.00,,,0.00,meteohub,2013-03-18 04:23:00,
2013-03-17 23:28:00,35.1,30.2,29.93,SE,136,6.0,15.0,82,0.00,,,0.00,meteohub,2013-03-18 04:28:00,
2013-03-17 23:33:00,35.1,30.4,29.93,East,101,4.0,15.0,83,0.00,,,0.00,meteohub,2013-03-18 04:33:00,
2013-03-17 23:39:00,34.9,30.2,29.92,SSE,163,2.0,12.0,83,0.00,,,0.00,meteohub,2013-03-18 04:39:00,
2013-03-17 23:44:00,34.9,30.6,29.93,ENE,71,7.0,15.0,84,0.00,,,0.00,meteohub,2013-03-18 04:44:00,
2013-03-17 23:49:00,34.7,30.4,29.93,East,99,7.0,15.0,84,0.00,,,0.00,meteohub,2013-03-18 04:49:00,
2013-03-17 23:54:00,34.5,30.6,29.93,East,86,7.0,15.0,85,0.00,,,0.00,meteohub,2013-03-18 04:54:00,
2013-03-17 23:59:00,34.3,30.4,29.92,NE,54,5.0,11.0,85,0.00,,,0.00,meteohub,2013-03-18 04:59:00,